Tiempo cada hora Bartniki

Hoy, 9 Marzo, Martes

Tiempo Temperatura Precipitaciones Viento Presión Humedad
00:00 -4°C° 0 mm 2 mps 756 mmHg 83%
01:00 -2°C° 0 mm 1 mps 756 mmHg 79%
02:00 -2°C° 0 mm 1 mps 756 mmHg 79%
03:00 -2°C° 0 mm 1 mps 756 mmHg 78%
04:00 -2°C° 0 mm 1 mps 756 mmHg 78%
05:00 -2°C° 0 mm 1 mps 756 mmHg 76%
06:00 -2°C° 0 mm 1 mps 756 mmHg 74%
07:00 -2°C° 0 mm 1 mps 756 mmHg 73%
08:00 -1°C° 0 mm 1 mps 756 mmHg 65%
09:00 0°C° 0 mm 1 mps 756 mmHg 58%
10:00 +1°C° 0 mm 1 mps 756 mmHg 51%
11:00 +1°C° 0 mm 1 mps 756 mmHg 47%
12:00 +2°C° 0 mm 1 mps 756 mmHg 44%
13:00 +2°C° 0 mm 1 mps 756 mmHg 40%
14:00 +2°C° 0 mm 1 mps 756 mmHg 41%
15:00 +2°C° 0 mm 1 mps 755 mmHg 41%
16:00 +2°C° 0 mm 1 mps 755 mmHg 42%
17:00 +1°C° 0 mm 1 mps 755 mmHg 46%
18:00 -2°C° 0 mm 2 mps 755 mmHg 51%
19:00 -3°C° 0 mm 2 mps 755 mmHg 55%
20:00 -3°C° 0 mm 2 mps 755 mmHg 56%
21:00 -3°C° 0 mm 2 mps 755 mmHg 57%
22:00 -3°C° 0 mm 2 mps 755 mmHg 58%
23:00 -3°C° 0 mm 2 mps 755 mmHg 59%

Mañana, 10 Marzo, Miércoles

Tiempo Temperatura Precipitaciones Viento Presión Humedad
00:00 -4°C° 0 mm 2 mps 755 mmHg 59%
01:00 -4°C° 0 mm 2 mps 755 mmHg 60%
02:00 -4°C° 0 mm 2 mps 755 mmHg 60%
03:00 -2°C° 0 mm 1 mps 755 mmHg 60%
04:00 -2°C° 0 mm 1 mps 755 mmHg 60%
05:00 -1°C° 0 mm 1 mps 755 mmHg 60%
06:00 -1°C° 0 mm 1 mps 755 mmHg 59%
07:00 -1°C° 0 mm 1 mps 755 mmHg 59%
08:00 0°C° 0 mm 1 mps 755 mmHg 54%
09:00 +1°C° 0 mm 1 mps 755 mmHg 50%
10:00 +2°C° 0 mm 1 mps 756 mmHg 45%
11:00 +3°C° 0 mm 1 mps 755 mmHg 44%
12:00 +4°C° 0 mm 1 mps 755 mmHg 42%
13:00 +3°C° 0 mm 0 mps 755 mmHg 40%
14:00 +3°C° 0 mm 0 mps 755 mmHg 42%
15:00 +3°C° 0 mm 0 mps 755 mmHg 43%
16:00 +3°C° 0 mm 0 mps 755 mmHg 44%
17:00 +2°C° 0 mm 1 mps 755 mmHg 48%
18:00 +1°C° 0 mm 1 mps 755 mmHg 52%
19:00 -2°C° 0 mm 2 mps 755 mmHg 56%
20:00 -2°C° 0 mm 2 mps 756 mmHg 57%
21:00 -2°C° 0 mm 2 mps 756 mmHg 58%
22:00 -3°C° 0 mm 2 mps 756 mmHg 59%
23:00 -3°C° 0 mm 2 mps 756 mmHg 59%

Pasado mañana, 11 Marzo, Jueves

Tiempo Temperatura Precipitaciones Viento Presión Humedad
00:00 -3°C° 0 mm 2 mps 756 mmHg 59%
01:00 -4°C° 0 mm 3 mps 756 mmHg 59%
02:00 -4°C° 0 mm 3 mps 755 mmHg 59%
03:00 -4°C° 0 mm 3 mps 755 mmHg 58%
04:00 -4°C° 0 mm 3 mps 754 mmHg 58%
05:00 -4°C° 0 mm 3 mps 754 mmHg 57%
06:00 -4°C° 0 mm 3 mps 754 mmHg 56%
07:00 -3°C° 0 mm 4 mps 754 mmHg 54%
08:00 -2°C° 0 mm 5 mps 753 mmHg 50%
09:00 -1°C° 0 mm 5 mps 753 mmHg 45%
10:00 -1°C° 0 mm 6 mps 753 mmHg 40%
11:00 0°C° 0 mm 7 mps 752 mmHg 40%
12:00 +2°C° 0 mm 7 mps 751 mmHg 39%
13:00 +2°C° 0 mm 7 mps 750 mmHg 39%
14:00 +2°C° 0 mm 7 mps 749 mmHg 42%
15:00 +2°C° 0 mm 7 mps 748 mmHg 45%
16:00 +2°C° 0 mm 7 mps 747 mmHg 49%
17:00 0°C° 0.4 mm 7 mps 747 mmHg 62%
18:00 -1°C° 0.4 mm 8 mps 746 mmHg 75%
19:00 -2°C° 0.4 mm 8 mps 745 mmHg 89%
20:00 -1°C° 1 mm 8 mps 745 mmHg 90%
21:00 0°C° 1 mm 7 mps 744 mmHg 92%
22:00 0°C° 1 mm 7 mps 744 mmHg 93%
23:00 +2°C° 0.3 mm 7 mps 743 mmHg 92%

12 Marzo, Viernes

Tiempo Temperatura Precipitaciones Viento Presión Humedad
00:00 +2°C° 0.3 mm 7 mps 743 mmHg 92%
01:00 +2°C° 0.3 mm 6 mps 742 mmHg 91%
02:00 +2°C° 0 mm 6 mps 742 mmHg 91%
03:00 +2°C° 0 mm 6 mps 742 mmHg 92%
04:00 +2°C° 0 mm 6 mps 742 mmHg 92%
05:00 +2°C° 0.1 mm 6 mps 742 mmHg 90%
06:00 +2°C° 0.1 mm 7 mps 743 mmHg 89%
07:00 +2°C° 0.1 mm 7 mps 743 mmHg 88%
08:00 +2°C° 0 mm 8 mps 743 mmHg 83%
09:00 +2°C° 0 mm 9 mps 744 mmHg 78%
10:00 +3°C° 0 mm 10 mps 744 mmHg 74%
11:00 +2°C° 0 mm 9 mps 745 mmHg 75%
12:00 +2°C° 0 mm 8 mps 746 mmHg 76%
13:00 +2°C° 0 mm 8 mps 746 mmHg 77%
14:00 +4°C° 0.1 mm 7 mps 747 mmHg 73%
15:00 +4°C° 0.1 mm 6 mps 747 mmHg 69%
16:00 +5°C° 0.1 mm 6 mps 747 mmHg 65%
17:00 +5°C° 0 mm 5 mps 747 mmHg 69%
18:00 +4°C° 0 mm 4 mps 747 mmHg 73%
19:00 +3°C° 0 mm 3 mps 748 mmHg 77%
20:00 +2°C° 0 mm 3 mps 748 mmHg 78%
21:00 +2°C° 0 mm 3 mps 748 mmHg 79%
22:00 +1°C° 0 mm 3 mps 748 mmHg 80%
23:00 0°C° 0 mm 4 mps 747 mmHg 80%

13 Marzo, Sábado

Tiempo Temperatura Precipitaciones Viento Presión Humedad
00:00 0°C° 0 mm 4 mps 747 mmHg 81%
01:00 0°C° 0 mm 4 mps 747 mmHg 81%
02:00 0°C° 0 mm 4 mps 746 mmHg 81%
03:00 0°C° 0 mm 5 mps 746 mmHg 81%
04:00 0°C° 0 mm 5 mps 745 mmHg 81%
05:00 +1°C° 0 mm 5 mps 745 mmHg 81%
06:00 +1°C° 0 mm 6 mps 745 mmHg 81%
07:00 +1°C° 0 mm 6 mps 745 mmHg 81%
08:00 +1°C° 0.5 mm 6 mps 745 mmHg 86%
09:00 +1°C° 0.5 mm 6 mps 745 mmHg 90%
10:00 +1°C° 0.5 mm 5 mps 746 mmHg 94%
11:00 +3°C° 0.2 mm 6 mps 746 mmHg 83%
12:00 +4°C° 0.2 mm 6 mps 746 mmHg 72%
13:00 +6°C° 0.2 mm 7 mps 746 mmHg 61%
14:00 +7°C° 0 mm 6 mps 745 mmHg 60%
15:00 +7°C° 0 mm 6 mps 745 mmHg 59%
16:00 +8°C° 0 mm 5 mps 745 mmHg 58%
17:00 +7°C° 0 mm 5 mps 745 mmHg 63%
18:00 +6°C° 0 mm 5 mps 745 mmHg 68%
19:00 +5°C° 0 mm 5 mps 744 mmHg 73%
20:00 +5°C° 0 mm 5 mps 744 mmHg 74%
21:00 +4°C° 0 mm 6 mps 744 mmHg 75%
22:00 +4°C° 0 mm 7 mps 744 mmHg 76%
23:00 +4°C° 0 mm 7 mps 744 mmHg 77%

14 Marzo, Domingo

Tiempo Temperatura Precipitaciones Viento Presión Humedad
00:00 +4°C° 0 mm 7 mps 743 mmHg 78%
01:00 +5°C° 0 mm 7 mps 743 mmHg 79%
02:00 +4°C° 0 mm 7 mps 742 mmHg 79%
03:00 +4°C° 0 mm 7 mps 742 mmHg 80%
04:00 +4°C° 0 mm 7 mps 742 mmHg 80%
05:00 +4°C° 0 mm 7 mps 741 mmHg 78%
06:00 +4°C° 0 mm 7 mps 741 mmHg 77%
07:00 +5°C° 0 mm 7 mps 741 mmHg 75%
08:00 +5°C° 0 mm 7 mps 741 mmHg 76%
09:00 +5°C° 0 mm 7 mps 741 mmHg 77%
10:00 +6°C° 0 mm 7 mps 741 mmHg 78%
11:00 +5°C° 0.2 mm 7 mps 741 mmHg 76%
12:00 +5°C° 0.2 mm 7 mps 741 mmHg 75%
13:00 +5°C° 0.2 mm 7 mps 741 mmHg 73%
14:00 +5°C° 0 mm 6 mps 742 mmHg 68%
15:00 +5°C° 0 mm 6 mps 742 mmHg 63%
16:00 +7°C° 0 mm 6 mps 742 mmHg 58%
17:00 +6°C° 0 mm 5 mps 743 mmHg 61%
18:00 +5°C° 0 mm 5 mps 743 mmHg 65%
19:00 +3°C° 0 mm 5 mps 744 mmHg 69%
20:00 +3°C° 0 mm 5 mps 744 mmHg 71%
21:00 +2°C° 0 mm 5 mps 744 mmHg 74%
22:00 +2°C° 0 mm 5 mps 745 mmHg 76%
23:00 +1°C° 0 mm 4 mps 745 mmHg 79%
Mostrar más

Necesitamos Su Consentimiento

Meteoprog y nuestros Proveedores de Servicios pueden almacenar y acceder a sus datos personales como cookies, identificadores de dispositivo u otras tecnologías similares de su dispositivo y procesar dichos datos para personalizar contenido y anuncios, además de ofrecer funciones de redes sociales y analizar el tráfico.

  • Almacenar y/o acceder a información en su dispositivo

    Se puede almacenar o acceder a cookies, identificadores de dispositivo u otra información de su dispositivo para los fines anteriormente indicados.

  • Anuncios y contenido personalizados, medición de anuncios y contenido, percepciones del público, y desarrollo de productos

    Los anuncios y el contenido pueden personalizarse en base a su perfil. Se pueden añadir más datos para personalizar mejor los anuncios y contenidos. Se puede medir el rendimiento de los anuncios y contenidos. Se puede obtener la percepción sobre el público que ha visto los anuncios y contenidos. Dichos datos pueden usarse para desarrollar o mejorar la experiencia del usuario, sistemas y software.

Al hacer clic en ‘Estoy De Acuerdo’ usted permitirá el uso de las cookies, identificadores de dispositivo, balizas web u otras tecnologías similares indicadas. Su configuración puede cambiarse desde el navegador de su dispositivo.

Para ciertos fines, los intereses legítimos pueden ser considerados por encima del consentimiento. Puede leer más sobre ello en nuestra Política de Privacidad y Cookies.